Theta_e
339 339 338 335 331 331 335 337 338 338 338 338 337 335 336 338 337 335 335 334 333 332 333 333 332 332 332 332 332 330 329 328 326 325 327 326 325 324 321 317 310 306 306 306 305 305 306 306 305 305 303 302 305 309 310 310 310 310 311 311 311 311 310 309 308 308 308 308 308 307 305 304 305 305
340 338 334 330 329 332 335 336 337 338 338 338 336 335 336 338 337 335 334 333 332 332 332 333 332 332 332 332 332 330 329 328 326 325 327 327 326 323 320 318 313 308 306 306 306 306 306 306 304 305 304 302 307 310 310 310 309 309 310 311 311 311 310 309 308 307 308 308 308 307 305 304 304 305
338 333 329 329 332 334 335 336 336 337 338 338 337 335 336 337 336 335 335 334 333 332 332 332 332 332 333 332 332 331 329 328 326 326 327 327 325 322 320 319 316 310 308 308 308 307 307 306 304 305 304 302 307 311 311 311 310 309 310 310 309 310 309 308 307 307 307 307 307 307 306 305 304 304
333 329 328 332 334 334 335 335 335 337 339 339 337 336 336 336 336 335 335 335 334 333 332 333 333 333 333 332 332 330 329 327 326 325 326 326 325 322 320 320 318 313 310 309 309 308 307 307 305 305 304 302 306 311 311 311 311 311 309 308 308 308 307 307 306 307 308 307 307 307 306 305 304 304
331 330 332 335 334 332 332 332 333 336 339 339 338 337 337 337 337 336 335 335 335 334 332 332 333 333 333 332 331 330 328 327 326 326 327 327 326 323 321 320 320 317 314 312 311 310 308 308 307 305 304 302 304 310 311 310 310 312 310 308 308 308 306 305 306 307 308 307 307 307 306 306 305 304
330 332 335 336 335 332 331 330 331 333 337 338 338 337 337 337 336 336 335 335 334 333 332 331 333 333 333 332 331 330 328 327 326 325 327 327 326 324 321 321 321 320 318 315 313 311 310 309 307 306 305 302 303 308 309 307 308 310 309 308 308 308 306 305 304 305 307 307 307 307 306 305 305 305
330 332 335 337 336 334 331 329 328 331 334 337 337 338 337 337 337 336 335 334 332 332 331 331 332 332 333 332 331 329 327 326 325 325 326 326 326 324 321 321 322 322 321 318 315 313 311 310 308 307 306 303 303 306 306 304 305 307 308 308 309 308 306 303 300 301 306 308 307 307 306 305 305 305
331 333 334 336 336 334 332 329 328 329 333 336 338 339 339 338 337 337 336 334 332 331 331 331 331 332 332 332 331 329 327 326 326 325 326 327 327 324 322 323 323 323 322 321 318 314 312 311 310 308 306 305 304 305 304 303 304 305 305 307 307 306 304 302 297 297 303 307 307 307 306 305 305 304
333 334 333 335 336 335 332 330 329 330 333 336 339 340 339 339 338 337 336 333 332 331 332 332 331 331 332 332 331 329 328 327 326 326 326 327 327 325 323 324 324 323 323 322 320 316 313 311 311 309 307 306 305 305 305 304 304 304 304 304 305 304 303 302 298 295 298 303 306 307 306 306 304 302
333 335 334 334 336 336 333 331 330 331 333 337 339 340 340 339 339 338 336 333 331 331 331 332 332 331 331 331 331 329 328 328 327 326 326 327 327 325 324 324 324 324 323 322 320 317 314 312 311 309 308 307 306 306 306 306 306 305 305 305 305 304 302 300 299 297 295 298 303 304 304 304 304 302
331 335 335 335 336 336 335 333 332 331 334 337 340 340 340 340 339 338 336 334 331 330 330 332 332 331 330 330 330 329 328 328 328 326 327 327 327 326 325 325 324 324 324 323 320 318 316 314 311 309 308 307 307 306 306 306 306 306 306 306 305 304 302 301 300 298 296 296 298 299 299 299 301 303
328 332 335 335 336 336 336 336 333 332 335 338 340 340 340 340 339 338 337 335 332 330 329 330 331 332 330 330 330 330 329 329 328 328 327 327 327 326 326 325 324 324 325 324 322 320 318 315 313 310 309 308 307 307 306 306 306 305 305 305 305 304 303 303 302 300 298 297 296 296 295 295 298 301
327 329 332 335 336 336 336 337 337 335 335 338 340 340 340 340 340 339 337 335 333 331 330 330 330 331 331 330 330 330 330 329 328 328 327 327 327 327 326 326 325 324 325 324 323 321 320 318 314 312 311 309 308 308 307 307 306 305 305 305 305 304 304 304 304 302 300 299 297 295 295 295 296 298
327 328 330 334 337 337 336 338 339 338 337 338 338 340 341 340 340 339 337 336 335 332 330 329 329 330 330 330 330 330 330 329 328 327 327 327 327 327 326 326 325 325 325 324 323 322 322 319 316 315 314 312 310 309 309 309 309 308 308 307 306 305 304 304 304 302 302 301 298 296 295 295 295 297
327 328 330 333 337 338 337 338 339 339 338 338 338 339 340 340 340 339 338 337 335 332 330 329 329 328 328 328 329 330 330 329 328 328 328 326 326 326 326 326 326 325 325 325 324 322 321 319 318 317 316 314 313 311 310 311 311 310 310 309 308 308 307 305 304 303 303 302 300 298 296 295 295 297
327 328 330 334 337 338 338 339 338 339 339 339 338 339 340 340 340 339 339 337 335 333 331 330 329 328 328 328 328 329 329 328 328 328 328 326 324 325 325 325 325 325 324 324 324 322 321 320 319 318 317 316 315 314 312 312 312 311 311 311 310 310 310 308 306 305 305 304 303 300 297 295 295 296
330 330 331 333 336 338 339 339 338 339 339 340 339 339 340 340 340 340 339 338 336 334 333 332 330 328 327 328 328 329 329 329 329 329 328 326 325 325 324 324 324 324 325 325 324 323 322 321 319 319 319 318 318 316 314 313 312 312 312 311 311 310 311 310 309 307 307 305 304 301 298 296 296 296
333 333 333 334 336 339 339 339 338 339 339 340 340 340 340 340 340 340 339 338 336 336 335 334 332 329 327 327 328 330 330 329 329 328 327 326 325 325 324 324 324 325 325 325 324 323 323 322 320 320 320 320 319 318 315 313 313 313 313 312 311 311 311 311 310 309 308 306 304 302 300 298 298 297
335 335 334 335 337 339 339 338 339 339 339 339 340 340 340 340 340 340 339 338 337 337 336 336 334 331 328 327 328 330 330 330 329 328 327 326 326 325 325 324 324 325 325 324 324 323 322 322 321 321 321 320 319 318 316 314 314 314 314 313 312 312 312 311 310 309 308 306 304 302 301 301 300 299
338 339 339 338 338 339 339 338 339 339 339 339 340 340 340 340 340 339 339 338 338 337 337 336 334 331 328 328 329 330 330 330 329 328 327 326 325 325 325 324 324 324 324 323 323 322 322 321 321 320 320 320 319 319 317 316 315 314 314 313 313 312 312 311 310 309 307 306 304 303 302 302 301 301
333 337 339 339 339 339 339 339 339 339 339 339 339 340 340 340 339 339 339 338 337 337 336 336 334 331 329 328 329 330 330 329 329 329 328 326 324 324 324 324 323 323 322 322 322 321 321 321 320 320 320 320 319 319 318 317 316 315 314 314 313 313 312 310 309 308 307 306 305 304 303 302 302 301
330 335 335 332 335 338 339 338 339 339 339 339 339 339 339 339 339 339 338 338 337 337 336 336 334 331 329 328 329 330 330 329 329 329 328 326 324 323 323 323 322 322 322 321 321 321 321 321 320 320 320 319 319 319 318 317 316 315 314 314 313 312 311 310 309 307 307 306 305 305 304 304 303 303
335 337 332 327 331 337 338 338 339 339 339 339 339 339 339 339 338 338 337 337 337 337 337 335 333 331 329 328 329 329 330 329 329 328 328 327 325 324 323 322 322 322 322 321 321 322 322 321 321 320 319 318 318 317 317 316 315 314 313 312 311 310 309 308 307 307 307 306 306 305 305 304 304 303
338 337 333 329 330 336 338 338 339 339 338 339 339 339 339 338 337 337 337 337 337 337 336 334 331 329 328 328 329 329 329 329 328 327 327 327 326 325 323 323 323 322 321 321 321 321 321 321 321 319 318 317 317 316 316 315 314 313 312 310 309 308 307 306 305 305 305 305 304 303 303 303 302 302
341 336 332 330 330 335 338 339 339 339 339 339 338 339 339 338 336 336 336 337 337 336 335 332 329 327 326 327 329 329 328 328 328 327 327 327 327 326 324 324 323 323 322 321 321 321 321 321 320 318 316 316 316 316 315 314 313 311 309 307 306 305 304 303 303 303 303 302 302 301 300 300 300 299
339 333 330 329 330 336 339 339 339 340 340 339 339 338 338 338 337 337 336 336 335 334 332 330 327 325 325 326 327 328 328 328 327 327 326 326 326 325 324 323 323 323 322 321 321 320 320 320 318 316 315 315 315 314 314 312 310 308 305 303 303 302 302 301 301 301 300 299 299 299 298 297 297 296
337 331 329 329 331 336 339 339 339 340 340 339 339 338 338 338 337 336 336 334 333 331 329 327 326 324 323 324 326 327 327 327 327 327 326 325 325 325 324 323 322 322 322 322 321 320 319 318 316 314 314 314 313 313 312 310 307 304 303 302 301 300 300 300 299 298 298 297 296 295 295 294 293 293
338 332 328 328 331 337 339 338 339 340 339 339 339 338 338 337 336 335 334 333 331 330 328 327 325 323 322 322 324 326 326 327 326 326 325 324 324 324 324 323 322 321 321 321 320 318 317 316 314 312 312 312 312 312 311 307 304 302 302 301 300 299 299 299 298 297 297 296 295 294 293 292 292 292
334 331 330 332 334 337 338 338 339 339 339 338 338 337 337 336 335 334 333 331 330 329 328 327 325 322 320 320 323 325 325 326 325 325 324 323 323 323 323 323 322 321 321 320 319 316 315 314 311 309 310 310 310 310 308 305 303 302 302 301 300 299 299 298 298 298 297 296 295 293 293 292 292 292
329 331 335 337 337 337 338 338 338 338 338 337 337 337 337 336 335 334 333 331 330 330 329 327 326 322 317 317 321 323 324 324 324 323 321 319 318 319 320 321 321 321 321 319 317 315 313 312 309 307 307 308 307 306 305 303 303 302 302 301 301 300 299 299 299 298 297 296 295 294 293 293 293 293
328 333 337 338 337 337 337 337 337 337 337 337 336 336 336 336 335 334 333 332 331 331 329 327 326 322 317 314 316 318 319 319 318 317 315 314 314 315 317 319 320 321 320 317 315 313 311 309 307 307 307 307 306 305 303 303 303 302 302 301 301 301 300 299 298 297 296 295 294 294 293 293 293 293
331 335 338 338 337 337 336 337 337 337 337 337 336 335 336 336 335 334 333 332 331 331 329 327 326 324 319 315 313 312 313 313 313 313 313 313 314 314 316 318 319 319 318 316 313 311 310 309 307 307 307 306 306 305 303 302 302 302 302 302 301 301 300 299 298 297 296 295 294 294 293 293 293 293
335 337 338 337 337 336 336 336 337 338 337 337 337 336 336 336 335 333 332 331 331 330 328 327 325 324 322 319 315 313 312 313 313 314 315 315 314 315 315 317 317 317 316 314 312 311 310 308 306 306 306 306 305 304 304 303 302 302 302 301 301 301 300 299 297 296 295 295 294 293 293 293 293 294
339 338 338 338 337 336 335 335 336 337 338 338 337 337 336 335 334 333 332 332 331 330 328 326 325 324 323 321 318 315 314 314 314 314 315 315 314 314 314 315 315 315 314 313 312 310 308 306 305 305 305 305 305 304 303 302 302 302 301 301 300 300 299 298 296 296 295 295 294 293 293 293 293 294
340 340 339 338 337 336 335 334 335 336 337 337 337 336 336 335 334 333 332 331 331 330 328 326 324 323 322 322 319 316 315 315 315 315 314 313 313 313 313 313 313 312 312 310 309 308 306 305 305 305 304 304 303 303 302 301 301 300 300 299 299 298 297 297 296 295 295 295 294 293 293 293 293 293
340 340 339 338 337 336 335 335 335 335 336 337 337 336 336 335 334 333 332 331 331 330 328 325 324 323 322 321 319 317 316 316 315 315 313 312 312 312 311 311 311 310 308 307 306 305 305 305 304 304 303 303 302 302 301 301 300 300 299 299 298 297 296 296 295 295 295 294 293 293 293 292 293 293
339 339 338 337 337 336 335 335 335 336 336 336 337 336 335 334 333 332 331 331 330 329 327 325 323 323 322 321 319 317 316 316 316 315 314 312 310 309 309 309 308 307 305 305 305 305 305 304 304 303 302 302 301 301 301 300 300 300 299 298 297 296 296 295 295 295 294 294 293 292 292 292 292 291
338 339 338 337 337 337 336 336 335 336 336 336 336 336 335 334 333 332 331 330 329 328 326 324 323 322 321 321 319 317 316 316 315 315 314 312 309 308 307 307 305 304 304 305 305 304 304 304 303 303 302 302 301 301 300 300 299 299 298 297 296 295 295 295 295 295 294 293 292 291 291 290 290 290
338 339 338 338 337 336 336 336 336 336 336 336 336 336 335 334 333 332 331 330 329 327 325 323 322 321 321 320 319 317 316 316 315 315 314 312 309 307 307 306 305 305 305 305 304 304 304 303 303 302 302 302 302 301 300 300 299 298 297 297 296 295 295 295 294 294 293 292 291 291 290 290 290 289
338 339 339 338 337 336 336 336 336 336 336 337 336 336 335 334 334 333 332 330 329 327 324 322 321 321 320 319 318 316 316 316 315 315 314 312 308 307 308 308 307 306 305 305 304 304 304 304 304 303 303 302 302 301 300 299 298 298 297 296 295 295 294 294 294 293 293 292 291 291 291 290 290 289
337 339 338 337 335 335 335 336 336 336 336 336 336 335 335 334 334 333 331 330 328 327 324 322 321 320 320 318 317 316 316 315 315 315 314 310 307 307 308 307 306 306 306 305 305 305 305 305 304 303 302 302 301 300 299 299 299 299 297 296 295 294 294 293 293 292 291 291 291 291 290 290 289 289
337 336 336 335 335 334 333 333 335 336 336 336 336 335 334 333 333 332 331 329 328 326 325 323 321 320 319 318 316 315 315 315 315 314 312 308 306 307 307 307 306 306 306 306 306 306 305 304 303 302 302 301 300 300 300 300 300 299 298 297 296 295 295 295 293 292 291 291 291 290 290 289 289 289
337 336 335 335 335 334 332 332 332 334 336 336 336 335 334 333 331 331 330 329 327 326 324 322 321 320 319 317 316 315 315 314 314 314 311 307 306 307 308 307 306 306 306 306 306 305 305 304 303 302 302 301 300 300 300 300 300 299 299 298 297 296 296 296 293 291 290 290 290 289 289 288 289 289
337 336 336 335 335 334 334 332 332 332 334 335 336 335 334 332 331 330 329 328 327 326 323 322 321 320 318 316 315 315 314 314 314 313 310 307 307 308 308 307 306 306 306 306 305 305 305 304 303 302 301 301 301 300 300 299 299 299 298 298 297 297 296 295 293 291 290 290 290 289 289 288 289 290
335 336 336 336 336 335 334 333 333 333 333 333 333 332 332 331 330 330 328 327 326 324 322 321 320 319 317 315 315 315 314 314 313 311 308 306 307 307 307 307 306 306 307 306 305 304 304 303 302 302 301 300 300 300 299 299 299 298 297 297 297 296 295 293 291 290 290 290 289 289 288 289 290 290
Wind_Speed
26 25 24 24 24 24 24 24 23 22 22 22 20 18 16 14 15 15 16 16 15 14 13 11 9 7 8 8 7 9 10 13 14 13 13 13 9 6 5 3 2 7 8 7 7 5 4 3 2 3 5 6 9 11 11 10 10 9 8 8 10 11 10 9 8 8 9 9 8 9 8 8 11 10
27 26 26 25 24 24 24 24 23 22 22 23 21 19 16 16 17 18 18 18 17 15 14 12 10 7 8 8 8 8 11 14 14 14 14 14 11 8 7 4 4 6 7 6 6 4 2 2 2 3 5 6 9 12 11 10 12 12 11 11 12 13 11 9 8 7 9 9 9 9 6 6 11 11
29 27 26 25 23 23 24 23 22 22 22 22 21 18 17 16 17 18 19 19 17 16 15 12 10 9 8 8 8 8 11 14 14 13 14 13 12 10 9 6 5 6 8 7 6 4 3 2 1 3 5 7 10 12 11 11 10 10 12 14 14 14 13 11 9 8 9 9 9 9 6 6 10 11
29 28 26 24 22 21 23 23 23 22 22 22 20 18 17 16 17 17 18 20 18 17 15 11 10 10 10 9 9 9 11 15 15 13 14 14 14 12 11 9 7 6 8 8 7 5 4 2 1 1 4 6 10 12 13 13 12 9 10 11 11 11 11 11 11 10 9 10 10 9 8 7 9 11
29 28 26 24 21 21 22 24 25 24 24 23 21 19 18 17 17 17 18 20 19 18 16 12 11 12 12 11 10 9 11 15 17 16 16 17 17 15 13 11 9 7 7 7 7 6 5 3 2 2 4 6 9 12 14 14 16 15 12 10 9 9 9 9 12 12 11 12 13 11 9 9 10 11
28 28 26 24 22 21 22 24 26 26 26 25 23 21 19 18 17 17 17 19 19 19 18 15 14 14 14 12 11 10 11 14 18 18 18 19 18 16 15 13 11 8 7 6 6 6 6 4 4 4 5 7 9 12 14 13 15 17 15 12 12 12 10 10 11 15 16 16 17 14 11 11 11 13
28 28 27 25 23 23 23 23 26 27 26 25 24 21 20 18 16 16 16 17 18 19 18 17 15 16 15 12 10 9 10 13 17 18 19 20 19 18 17 15 12 10 8 7 7 7 7 6 5 5 6 8 10 11 13 12 13 15 16 16 15 15 14 13 13 15 19 20 19 15 13 12 12 14
29 29 28 27 25 25 25 24 25 27 26 25 24 22 21 18 16 15 15 16 17 17 18 18 16 14 14 12 10 10 10 12 15 16 19 22 21 19 18 16 14 12 10 9 9 9 9 8 7 7 7 8 10 11 11 12 13 14 15 17 17 16 15 15 14 15 20 21 19 14 13 14 14 14
30 30 29 27 26 26 27 26 26 27 27 26 24 23 21 19 16 15 14 15 16 17 18 17 16 14 14 14 12 11 11 13 15 16 18 21 21 21 20 18 16 15 14 13 13 11 11 10 9 9 9 9 10 11 11 12 13 13 14 16 16 15 14 15 14 14 18 21 22 19 18 19 18 17
33 32 31 29 28 28 28 28 27 27 27 26 25 24 22 20 17 16 15 14 15 17 18 17 17 17 17 17 14 12 12 14 16 16 18 22 23 22 22 21 19 18 18 18 17 15 14 13 12 12 11 11 11 12 12 13 13 13 14 14 15 14 14 13 13 13 15 19 22 23 22 22 21 20
34 34 32 31 29 29 28 27 27 27 27 27 26 24 22 21 19 18 16 14 14 16 18 18 18 18 18 18 16 14 14 17 18 17 19 25 27 26 26 24 22 21 22 22 21 18 16 15 15 14 13 13 13 13 13 14 14 14 14 14 13 14 14 14 13 12 14 17 19 20 20 21 22 22
35 35 34 32 30 30 29 26 26 27 28 27 26 25 24 23 21 20 17 15 15 16 18 19 20 20 19 19 19 19 18 21 23 22 21 23 24 25 27 24 22 23 25 26 24 21 20 18 18 17 16 15 15 14 15 16 16 15 14 14 14 15 15 15 14 13 14 15 17 18 18 19 22 23
35 35 35 34 31 30 29 26 24 25 27 27 26 26 26 25 23 21 19 17 17 17 18 19 21 22 22 22 22 24 24 22 21 21 22 23 22 23 26 26 26 26 26 27 25 23 22 22 22 21 19 18 16 16 17 17 16 15 14 15 16 15 15 16 15 14 14 15 16 17 18 18 20 23
34 34 35 34 32 31 30 27 24 24 25 26 27 26 27 26 24 23 21 19 18 18 19 20 22 24 26 26 25 26 25 22 19 20 22 23 23 25 28 30 31 28 26 26 25 23 23 24 24 23 21 19 18 19 20 18 16 14 15 16 16 15 16 16 16 15 15 16 16 17 18 18 19 21
34 34 34 34 33 32 31 29 27 25 24 25 26 26 26 26 25 24 22 21 19 18 18 20 22 24 26 27 26 25 24 23 22 21 21 21 23 26 29 30 31 29 25 25 25 24 24 24 24 23 22 21 20 21 21 19 16 16 16 17 17 16 16 16 16 16 17 16 16 17 18 18 18 19
36 34 33 33 34 33 33 31 28 27 25 23 24 25 26 27 27 25 23 21 19 18 18 19 22 23 24 26 26 25 24 23 23 22 21 21 21 23 25 27 28 26 24 26 28 27 25 24 24 23 22 21 22 23 22 20 18 18 18 18 18 17 17 17 17 17 17 17 16 16 17 18 19 19
37 35 33 33 34 34 35 33 30 29 27 24 23 25 26 28 28 26 24 21 19 18 18 19 21 22 22 24 25 24 23 23 23 23 24 23 22 21 22 23 23 23 24 27 29 28 26 25 24 22 22 22 23 24 24 22 19 19 19 19 20 19 19 18 17 17 17 16 15 16 17 18 19 19
37 36 33 33 34 35 36 35 32 30 29 26 25 26 28 30 29 27 26 24 22 21 22 22 21 20 21 22 22 21 22 23 23 24 23 23 22 21 21 20 20 22 24 26 26 26 26 25 23 22 22 23 24 25 25 23 20 19 20 20 21 20 20 18 16 16 16 15 14 15 16 18 18 19
35 35 34 33 33 35 37 37 34 32 30 28 27 27 29 31 30 28 27 25 24 24 24 24 22 20 20 21 19 19 20 21 21 21 20 18 17 18 19 20 21 23 24 23 23 24 24 23 23 23 23 24 25 25 25 23 22 21 20 19 19 19 18 16 15 15 15 14 13 14 15 16 17 18
34 35 35 34 35 36 37 37 35 32 30 30 29 29 30 31 30 28 27 26 26 26 26 24 23 21 21 21 21 20 20 19 19 20 20 17 17 19 20 21 22 22 21 21 21 21 21 21 22 23 23 23 23 23 23 23 22 20 18 16 15 16 15 14 14 14 13 13 13 14 15 15 16 17
37 36 34 35 37 38 38 37 35 33 31 30 30 30 30 31 30 29 27 27 28 28 27 25 23 23 23 23 23 22 21 21 20 21 22 21 20 20 22 23 22 21 20 20 20 20 20 21 21 22 22 21 20 21 21 22 21 18 15 14 14 14 14 14 15 15 14 14 14 15 15 15 16 17
38 36 34 35 38 41 41 38 35 33 32 32 31 30 30 30 30 29 29 29 29 29 28 26 25 25 25 26 26 24 23 23 23 23 24 23 22 23 24 24 23 22 22 22 21 21 21 21 21 21 20 20 20 21 21 22 21 18 15 14 15 15 15 16 16 17 16 16 16 16 16 16 17 18
37 35 34 33 36 42 43 39 35 34 33 33 32 31 30 30 29 28 28 29 30 30 27 25 25 26 27 27 27 26 25 25 25 24 24 25 25 24 23 24 24 23 23 23 23 23 23 22 21 20 20 21 21 21 22 21 19 16 15 15 15 15 15 15 15 15 16 16 16 16 15 16 16 17
37 35 34 33 35 41 43 38 34 34 34 34 32 31 30 29 27 27 28 29 30 28 26 24 25 25 27 28 29 27 26 27 26 25 24 26 26 24 23 23 23 22 19 16 19 22 23 21 21 20 20 21 21 20 20 19 17 16 16 15 14 14 14 13 13 13 14 14 15 15 15 15 15 16
37 34 34 33 35 40 42 37 34 33 34 33 32 30 29 27 25 25 27 28 27 26 25 25 25 25 25 27 29 29 28 27 27 26 25 25 26 25 23 22 22 21 18 14 15 18 21 21 21 20 20 22 22 20 19 18 18 17 16 15 14 13 13 13 13 13 13 14 14 15 15 15 15 15
37 34 33 33 35 39 40 36 33 32 33 33 32 29 27 25 25 25 25 25 26 25 24 24 24 24 25 27 29 29 29 28 27 26 25 24 24 25 23 20 19 18 16 15 15 17 19 20 20 19 21 23 23 22 19 18 17 17 16 15 14 13 14 14 13 13 13 13 14 14 14 15 15 15
36 33 31 32 35 39 39 35 32 32 32 32 30 27 25 25 25 24 24 25 25 24 23 23 23 23 25 28 29 29 29 29 28 27 25 23 23 23 22 20 19 16 14 14 17 17 18 19 18 18 19 20 21 22 20 18 17 17 15 14 13 13 14 14 13 12 12 11 12 12 12 14 14 14
33 31 30 32 37 41 40 35 32 31 31 30 28 26 25 25 25 25 26 27 26 24 24 23 23 22 24 27 30 30 29 29 28 27 25 24 24 24 23 22 20 18 16 16 17 17 17 18 17 16 17 18 18 20 19 18 16 15 14 14 13 13 14 14 13 13 11 10 9 8 9 10 11 11
30 30 31 35 39 42 40 34 31 31 30 29 27 26 26 26 26 26 27 27 27 26 24 23 21 20 21 24 27 29 30 29 29 28 27 26 26 26 25 23 20 19 19 20 19 17 17 18 17 16 17 17 15 16 17 16 14 14 15 13 11 11 13 14 14 13 11 9 7 6 5 6 7 9
30 32 35 37 40 40 37 31 29 30 29 28 27 27 27 28 27 27 28 29 28 26 24 22 19 17 17 20 25 28 30 31 30 29 28 28 28 27 27 25 23 23 22 21 19 18 18 18 17 16 17 17 16 16 16 15 13 14 15 13 11 11 13 13 13 12 10 7 6 5 5 5 6 7
28 32 34 36 39 37 32 28 29 30 29 29 29 29 30 30 29 28 29 28 27 25 23 21 18 15 16 20 24 27 29 29 29 28 26 26 26 27 26 25 25 26 25 23 21 20 19 19 17 16 17 18 18 18 17 15 14 15 15 14 13 12 11 11 12 11 8 7 7 6 6 6 7 7
28 32 32 32 35 34 30 28 31 32 32 32 32 32 32 32 31 29 28 27 26 24 22 20 19 18 19 21 24 26 27 26 26 25 23 22 23 24 25 26 27 28 27 25 23 22 20 18 16 16 17 17 17 18 18 17 16 16 16 15 14 13 12 12 12 10 8 9 9 8 8 8 9 9
33 35 33 32 33 33 31 31 34 35 36 36 35 35 34 33 32 31 30 29 28 26 24 23 23 22 22 22 24 26 26 25 24 23 22 21 22 23 25 26 27 28 27 25 24 22 20 18 16 16 17 17 17 17 18 18 18 18 17 17 16 15 14 14 12 10 10 10 10 9 10 11 11 11
37 38 35 35 37 36 34 34 36 37 38 39 39 37 36 35 34 33 32 32 31 28 27 26 26 25 24 24 25 27 27 26 24 22 21 22 22 23 24 25 26 26 25 23 23 22 19 17 17 17 18 19 20 19 19 18 18 18 18 18 17 15 14 14 13 12 11 11 12 12 12 12 12 13
42 41 39 39 39 37 35 36 37 37 39 40 40 39 38 37 36 35 34 34 33 31 29 28 28 27 26 25 26 27 27 27 25 22 21 22 23 23 23 24 24 25 23 22 21 20 18 17 18 18 19 20 20 20 20 20 18 17 17 17 16 15 14 15 15 14 13 13 13 13 13 13 14 15
44 44 42 40 39 38 38 38 39 39 40 41 42 42 41 40 39 38 37 37 36 34 31 30 30 30 28 27 27 28 28 27 26 24 23 24 25 24 23 23 23 23 22 21 20 18 17 18 19 19 21 22 21 21 21 21 20 18 17 16 15 15 15 16 16 15 15 14 13 14 15 16 16 17
43 44 42 39 38 39 40 40 41 42 42 42 43 44 43 42 41 40 39 38 37 35 33 32 32 31 29 28 28 29 29 29 27 26 25 26 26 26 25 24 23 22 21 21 19 18 18 18 19 20 20 22 22 22 23 22 21 20 18 16 15 15 16 17 17 17 16 14 14 15 17 18 17 18
41 43 41 38 37 38 40 42 43 44 44 44 45 45 45 43 42 41 40 40 39 36 34 34 33 31 30 30 30 31 31 30 30 28 27 27 28 28 26 25 24 23 22 21 20 20 19 19 19 19 19 19 19 19 20 22 22 20 18 16 15 14 16 17 18 18 17 16 17 18 18 18 18 18
38 40 39 37 37 38 40 42 44 45 46 46 47 47 46 44 43 42 42 42 40 37 35 35 35 33 32 32 31 32 32 32 32 31 30 30 31 30 28 27 26 26 25 24 23 22 22 22 22 21 19 17 13 11 13 18 19 17 15 15 15 16 17 18 19 19 19 19 19 18 18 17 17 17
38 38 37 35 36 37 40 42 44 46 47 48 49 49 48 46 45 45 45 43 41 38 37 37 36 34 34 34 33 33 33 33 33 32 32 32 32 31 30 29 28 29 29 27 26 25 25 24 22 20 17 15 10 7 9 15 17 16 14 15 15 16 17 18 19 21 22 21 19 18 17 16 16 16
40 38 36 35 35 37 39 42 44 46 48 49 50 51 50 48 47 47 46 43 41 39 38 38 37 36 36 35 34 34 34 34 33 33 33 33 33 33 31 30 30 31 30 29 28 28 27 23 19 18 17 15 13 13 15 16 16 15 15 15 15 15 16 17 19 21 22 20 18 17 16 16 16 16
38 36 34 32 32 34 36 39 44 47 49 50 51 51 50 49 48 47 45 43 41 39 38 38 38 38 37 36 35 35 34 34 34 34 34 34 34 34 33 32 32 33 32 29 28 28 25 22 20 21 21 19 19 19 19 17 15 15 15 16 16 17 17 19 20 21 21 19 18 16 15 15 16 16
36 34 31 31 32 33 34 36 42 47 51 52 52 51 50 50 49 47 44 43 43 41 39 38 38 38 38 37 36 35 34 34 34 33 34 35 35 35 35 34 32 31 30 27 25 25 26 26 25 25 25 24 23 22 20 18 16 16 16 18 19 20 20 21 21 21 20 19 18 17 16 16 17 16
35 33 32 33 35 35 35 36 39 44 49 52 53 52 53 52 49 45 43 44 43 42 39 38 38 39 39 38 37 35 34 34 33 33 34 35 36 35 34 32 30 29 28 27 25 26 28 29 28 28 28 27 25 23 21 19 18 18 19 20 21 21 21 21 21 21 21 19 18 17 16 16 16 16
35 35 35 36 36 37 37 39 40 43 47 51 53 53 53 49 44 42 43 43 42 40 39 38 38 39 39 38 37 35 34 33 32 32 34 35 36 35 33 31 31 30 30 29 28 28 29 29 30 30 29 27 25 23 22 20 20 20 20 20 21 20 20 20 21 21 20 19 17 16 16 16 16 15
Wind_Direction
237 239 244 246 243 237 233 234 235 235 235 237 241 246 247 245 247 249 250 251 249 240 236 246 251 244 239 237 250 251 220 201 198 193 199 213 215 221 243 262 209 173 162 156 153 148 144 143 161 186 187 188 182 176 177 176 172 182 188 172 181 209 221 215 206 191 190 203 198 179 171 169 167 168
240 243 246 246 241 233 229 230 231 231 229 230 235 238 237 237 241 248 256 261 264 256 244 246 252 252 251 248 250 249 224 205 201 197 203 214 214 217 224 226 215 184 162 153 153 146 150 161 188 203 194 192 187 180 180 182 174 175 189 195 199 213 226 226 212 194 198 208 200 194 199 179 172 176
242 243 242 240 235 229 226 226 226 226 225 228 232 232 231 233 237 244 253 259 264 261 253 254 255 249 251 255 254 250 227 207 202 200 203 212 216 218 218 213 214 196 173 163 164 168 185 187 182 201 195 191 189 185 183 187 180 172 186 199 208 218 229 232 216 200 208 218 212 211 220 198 181 182
242 240 236 235 233 227 224 223 224 223 224 229 232 230 229 231 235 240 246 252 260 264 258 253 252 245 240 244 253 254 229 209 202 201 203 209 216 219 220 217 215 201 182 173 172 181 196 192 161 201 203 198 193 190 188 191 196 203 205 199 199 212 220 219 212 210 222 232 231 223 216 209 199 192
241 238 233 233 232 229 225 222 222 223 225 231 233 229 228 230 233 237 242 248 254 259 250 234 233 241 236 235 244 249 235 213 199 200 210 216 221 224 225 223 221 209 195 187 180 187 197 193 185 202 213 215 202 191 193 195 195 204 218 214 207 219 221 210 204 204 219 237 239 235 227 216 207 202
238 236 232 232 232 231 229 223 222 223 225 230 232 228 228 230 232 237 242 247 249 252 247 229 222 231 234 236 240 242 240 220 200 197 207 216 221 226 230 231 229 222 214 209 200 200 202 196 200 212 213 218 212 195 193 198 195 199 213 220 223 234 236 229 215 200 204 224 235 239 242 228 210 206
236 234 232 232 232 234 233 225 221 222 224 228 231 229 229 230 232 237 243 247 249 248 244 231 222 224 229 238 245 244 237 220 206 199 202 213 220 224 229 232 229 227 228 225 219 213 208 202 206 219 218 217 218 204 193 197 200 202 212 221 229 239 242 243 235 209 202 217 230 236 239 232 219 216
237 234 233 233 233 234 234 226 221 220 221 225 229 229 229 230 231 236 243 248 249 246 241 235 228 225 232 241 242 235 220 207 208 208 207 215 223 225 227 228 225 225 231 233 230 224 218 210 206 214 220 219 220 212 196 196 204 207 214 222 231 240 244 245 241 217 204 211 222 226 228 231 233 235
240 238 236 236 236 236 234 227 221 219 218 221 225 227 228 230 232 234 240 246 247 243 241 238 231 223 227 236 235 228 216 202 205 211 212 217 224 228 228 228 226 225 229 233 231 227 224 220 214 215 220 221 221 216 204 202 207 211 217 223 229 237 243 244 241 224 210 211 215 215 219 230 236 238
243 241 239 239 240 239 236 230 224 219 217 219 222 225 226 229 231 231 236 242 244 243 242 240 234 225 223 228 229 227 226 218 209 209 213 217 221 227 229 228 227 225 228 231 228 224 224 224 221 219 218 219 221 217 213 212 214 217 220 224 229 236 242 244 241 232 219 214 216 218 223 231 235 235
244 243 241 240 241 241 239 234 228 222 218 218 221 224 225 227 228 230 234 238 241 244 243 239 236 232 228 227 227 228 229 226 220 216 217 217 218 222 227 229 230 230 231 232 229 227 227 227 228 225 220 221 222 220 219 220 223 225 227 231 237 241 244 247 246 237 226 221 221 224 228 230 231 232
242 243 241 240 240 241 239 236 233 227 221 220 222 224 225 226 228 230 232 234 239 242 242 240 236 233 231 229 228 227 224 220 221 225 226 224 224 226 228 232 235 236 236 234 230 228 228 229 230 227 224 223 224 225 224 225 227 229 232 240 246 246 246 249 247 240 234 231 228 228 229 227 226 229
239 241 240 238 237 238 237 235 235 233 228 225 224 224 225 225 227 230 229 231 236 239 241 242 237 231 230 230 227 224 223 222 225 229 231 233 236 235 231 231 233 236 238 237 234 232 235 235 232 230 229 226 227 231 233 233 233 236 241 246 249 249 249 249 248 247 249 246 237 230 230 228 226 228
238 239 239 237 235 236 235 234 235 236 234 231 229 229 229 228 227 229 228 228 233 238 241 242 239 233 231 231 228 226 228 232 234 233 232 233 236 235 232 233 236 236 238 239 238 238 241 240 238 237 236 232 232 236 238 241 243 246 250 252 251 251 251 251 253 257 260 254 242 235 232 230 229 229
238 238 239 237 235 234 234 234 234 234 234 234 232 232 234 234 234 234 232 230 231 237 243 244 243 241 237 234 232 230 232 236 239 238 236 232 231 230 230 234 238 237 235 237 239 240 241 240 240 241 241 238 237 239 242 246 248 250 253 254 255 257 258 257 257 260 264 259 248 241 235 233 233 231
239 237 237 237 234 233 233 234 233 231 230 230 230 231 234 236 237 238 238 235 232 237 244 247 247 247 244 239 235 233 233 236 239 239 236 234 231 228 228 232 237 238 236 236 237 237 239 239 240 241 242 242 242 243 244 245 245 249 254 256 259 262 262 261 259 260 264 263 254 244 236 234 236 235
241 239 237 236 235 234 234 235 233 229 226 225 224 226 231 233 234 236 237 236 235 241 248 253 253 253 250 243 238 236 237 237 236 234 232 233 233 231 232 234 238 242 242 240 239 238 241 243 243 243 245 247 248 248 247 245 245 251 256 258 260 262 264 264 262 260 264 265 257 244 237 236 238 237
246 243 241 237 235 235 234 233 232 228 225 224 224 225 227 230 231 232 234 234 236 243 250 255 258 257 251 246 240 238 238 238 237 234 232 233 235 238 240 241 243 246 248 246 244 243 244 246 246 248 250 251 251 251 249 247 250 254 257 259 260 261 262 262 259 258 260 261 251 242 239 240 241 241
248 249 248 243 237 235 234 232 230 228 226 225 226 228 229 230 230 231 232 234 239 246 251 257 262 259 251 245 239 235 238 240 239 239 240 243 245 244 241 240 242 244 245 244 243 244 245 247 248 251 254 254 254 253 252 250 250 251 253 256 256 255 256 255 253 253 255 252 243 238 240 241 243 247
244 248 249 245 237 233 233 233 231 228 227 227 227 228 230 231 231 230 231 236 241 246 250 255 261 259 251 245 239 235 237 237 236 237 236 235 238 238 235 234 235 236 237 236 238 241 243 245 247 250 253 254 255 255 255 253 252 251 253 253 248 247 248 247 246 245 244 242 238 236 238 240 242 246
244 244 246 246 241 235 233 233 231 229 229 229 228 228 229 230 229 229 231 236 241 245 248 252 258 257 251 245 241 238 234 230 229 231 229 224 222 224 226 227 227 227 228 230 233 237 239 241 244 247 250 252 254 255 256 257 259 260 259 256 251 248 244 240 237 236 235 235 234 232 235 237 239 241
244 242 243 247 247 241 236 233 231 230 230 230 229 228 227 228 227 228 232 236 240 242 244 249 255 256 250 243 241 238 232 227 228 230 230 226 221 219 220 220 221 222 225 228 231 238 240 240 241 245 248 250 251 253 255 258 259 258 255 254 254 250 242 236 233 232 231 231 231 232 235 238 239 241
240 239 240 243 245 243 239 233 231 232 232 231 230 228 228 229 231 233 236 239 241 242 245 250 255 256 250 244 240 237 231 229 230 231 232 231 228 228 226 221 218 221 226 229 231 235 239 241 241 243 245 247 249 250 252 253 250 246 245 248 248 242 235 232 231 229 229 232 235 238 241 243 245 246
236 237 239 240 242 242 238 233 233 234 234 233 231 230 230 234 237 238 239 240 241 242 245 250 254 254 249 243 240 236 231 230 230 229 231 232 232 234 235 230 227 230 235 236 233 235 238 240 241 240 240 244 247 248 248 245 239 237 239 239 233 226 224 225 225 223 226 230 235 240 243 246 247 248
235 238 239 239 242 241 236 233 234 235 234 234 233 233 236 240 242 241 240 240 239 239 242 248 251 250 246 241 238 235 231 231 231 232 232 232 231 233 236 237 238 241 245 243 237 238 238 236 235 235 234 238 243 244 241 236 231 231 232 226 220 218 219 221 220 221 226 231 236 240 242 244 245 246
236 239 242 243 244 240 234 234 236 234 233 234 234 235 238 241 242 242 240 238 235 235 239 245 247 246 242 238 235 233 231 231 233 234 234 234 233 235 239 243 245 247 250 246 238 238 238 235 234 232 231 233 236 238 236 230 223 220 218 214 213 216 217 218 220 223 228 232 235 237 239 241 243 246
238 242 245 247 246 238 232 233 234 232 232 234 234 233 236 240 242 240 236 232 231 233 238 242 244 243 240 237 233 232 232 233 234 235 235 235 236 239 241 245 245 245 246 244 241 240 238 234 233 234 234 233 233 230 226 221 217 216 212 208 208 212 214 212 212 214 218 223 227 232 237 240 242 244
242 247 247 248 244 234 229 232 233 232 232 233 233 233 234 237 238 234 231 231 231 234 238 240 241 242 239 235 232 232 233 235 235 236 236 235 237 238 239 242 243 238 232 232 237 239 236 232 231 233 231 231 232 228 220 216 216 210 202 200 202 203 200 197 199 206 212 215 220 227 234 237 238 240
244 247 246 246 241 230 225 228 230 230 231 232 233 235 235 233 233 231 231 233 233 236 239 240 241 242 238 232 230 231 233 234 235 235 236 235 235 236 236 238 238 233 229 230 234 236 233 230 229 226 221 219 223 224 220 217 215 206 200 201 200 196 197 198 204 212 218 221 224 232 236 233 234 240
244 246 246 248 242 229 223 226 228 229 231 231 233 235 233 231 232 233 234 236 238 241 241 240 240 240 236 230 227 228 231 233 234 236 236 236 235 235 235 233 228 223 223 226 228 228 226 227 226 222 216 209 205 209 216 218 213 207 205 204 199 202 209 212 214 220 227 233 241 249 248 245 249 259
246 245 245 247 242 231 225 228 231 232 233 231 231 231 229 229 232 236 239 242 246 249 247 242 239 235 229 226 225 226 229 230 232 234 234 233 234 232 229 225 221 220 220 221 221 220 221 226 226 220 216 211 204 205 212 214 212 214 215 212 211 218 224 221 222 232 241 242 246 253 256 261 271 279
243 242 240 238 234 229 227 229 230 230 231 232 232 230 228 228 229 232 239 244 247 249 246 239 233 229 226 226 228 228 228 228 229 229 227 227 229 228 223 218 217 218 219 219 219 218 220 225 224 218 217 219 217 215 215 212 211 217 223 224 226 231 235 233 233 240 243 242 250 261 264 267 273 278
231 233 231 226 224 225 228 230 230 229 229 229 230 230 228 228 226 227 233 239 241 242 239 233 229 227 227 229 230 229 227 225 224 223 223 224 225 223 220 220 220 222 222 220 220 220 220 219 215 210 212 217 221 225 226 223 219 217 219 224 229 234 239 241 241 240 242 252 267 275 271 269 270 271
227 227 224 221 221 224 226 227 229 230 228 227 227 227 226 227 227 229 232 237 240 241 238 232 229 227 227 229 230 228 224 221 219 220 223 226 224 220 217 218 219 222 224 225 224 223 220 217 213 210 213 218 222 227 229 229 227 222 217 218 225 235 242 244 244 244 249 263 275 277 273 272 270 269
227 226 222 220 222 225 226 227 229 230 229 227 227 227 225 226 228 231 234 236 239 240 236 230 227 227 228 230 231 228 223 219 219 220 221 222 222 220 219 218 219 220 221 223 223 221 219 220 219 215 214 218 222 224 222 220 220 219 217 217 222 228 236 241 244 246 250 259 265 267 270 273 273 273
227 227 224 223 225 227 227 229 229 229 228 228 227 226 226 226 228 231 234 236 237 237 234 227 224 226 228 230 231 229 225 221 221 221 221 221 220 219 219 220 223 224 221 219 218 216 218 222 223 220 217 216 218 220 220 219 218 219 223 227 228 227 231 237 240 241 246 253 259 263 268 272 273 274
230 229 229 229 231 230 230 231 230 230 229 229 228 227 228 230 231 232 233 233 233 235 233 227 225 227 229 230 230 229 225 224 225 224 224 224 221 217 215 217 220 222 219 214 211 212 215 218 222 223 222 222 225 227 228 227 226 226 229 234 236 233 231 233 236 241 248 257 264 267 269 270 271 273
232 231 233 235 235 235 235 234 233 232 231 230 229 229 230 232 233 233 232 231 231 232 230 225 224 226 228 229 229 227 225 225 226 227 228 227 223 218 214 212 213 214 212 209 209 210 211 215 219 220 220 224 232 239 239 234 231 230 230 232 237 238 235 235 241 247 252 260 267 269 268 268 270 272
234 235 238 240 240 239 239 237 236 236 234 233 233 232 231 231 233 233 232 231 231 230 227 223 222 223 225 227 228 226 225 225 227 228 229 228 225 219 214 212 210 207 204 206 209 209 210 214 217 216 218 226 240 259 256 241 233 230 230 232 237 242 244 245 248 250 254 261 266 265 263 265 269 272
231 234 239 242 244 246 245 243 242 240 238 237 237 236 234 234 235 233 231 229 229 228 226 223 222 222 223 224 225 224 225 228 232 234 232 228 224 218 215 213 209 204 202 205 209 211 215 219 219 218 223 234 248 256 241 231 228 229 231 235 239 242 245 248 250 251 255 259 260 258 259 265 271 276
229 230 234 238 243 246 247 246 245 244 242 241 240 238 235 236 237 235 230 228 228 227 225 223 222 222 222 222 222 223 225 228 231 233 231 226 220 216 214 211 206 205 206 209 212 217 222 223 223 223 226 232 234 228 223 227 236 239 239 240 241 242 247 254 257 258 257 256 254 256 264 271 276 277
233 234 237 243 249 252 252 249 246 244 244 243 242 240 236 235 235 233 229 228 229 228 226 225 223 221 221 222 223 224 226 228 230 230 228 222 217 214 213 210 207 208 212 215 220 226 228 226 223 224 224 224 226 229 235 245 254 252 246 247 249 252 258 266 268 263 258 254 255 261 269 274 278 277
237 240 245 255 261 261 260 255 247 244 243 243 244 243 240 235 231 229 227 227 228 228 227 226 224 221 221 222 223 225 227 229 230 229 226 220 216 215 214 213 212 213 218 224 230 231 228 225 223 222 222 223 226 232 241 249 252 248 246 248 251 255 262 269 270 265 259 258 262 267 270 272 274 272
241 245 253 262 263 263 264 262 253 246 244 245 246 244 240 235 230 227 226 226 227 227 226 224 222 220 220 220 222 225 228 230 230 228 224 220 217 217 216 215 215 218 223 228 229 225 220 220 220 219 220 225 228 232 238 243 243 242 243 246 250 256 263 268 267 262 258 260 264 269 271 270 266 262
253 255 258 262 262 263 267 268 261 252 246 246 244 241 237 235 232 228 226 227 227 226 225 221 219 218 218 219 222 225 227 228 227 225 222 220 218 217 217 217 218 221 225 226 224 218 215 214 215 216 220 225 228 233 238 242 243 244 245 248 253 259 263 264 262 259 260 264 268 270 267 261 256 258